Location: Palombina Nuova
(43.6167°N, 13.4000°E)
Time: 05:04:57
(UTC+00:00)

Cosmos 1802 Rocket - Pass Details

Date: 17 February 2020
Orbit: 954 x 1011 km, 82.9° (Epoch: 30 March)

Event Time Altitude Azimuth Distance (km) Brightness Sun altitude
Rises 05:26:30 0° 346° (NNW) 3,751 6.8 -7.3°
Reaches altitude 10° 05:29:07 10° 341° (NNW) 2,800 6.1 -6.8°
Maximum altitude 05:35:13 47° 270° (W) 1,318 4.3 -5.7°
Drops below altitude 10° 05:41:17 10° 199° (SSW) 2,777 6.3 -4.7°
Sets 05:43:53 0° 193° (SSW) 3,719 7.0 -4.2°
